Location: Doverdale
(52.2833°N, 2.2000°W)
Time: 01:45:37
(UTC+00:00)

Cosmos 1980 Rocket - Pass Details

Date: 07 March 2021
Orbit: 828 x 851 km, 71.0° (Epoch: 15 April)

Event Time Altitude Azimuth Distance (km) Brightness Sun altitude
Rises 23:09:39 0° 326° (NW) 3,428 6.2 -40.5°
Reaches altitude 10° 23:12:57 10° 345° (NNW) 2,491 5.3 -40.6°
Enters shadow 23:15:49 17° 15° (NNE) 2,013 4.5 -40.8°
